Location: Munkebjergskolens Observatorium
(55.3864°N, 10.3987°E)
Time: 04:55:52
(UTC+02:00)

CAS-6 - Pass Details

Date: 01 April 2023
Orbit: 610 x 632 km, 97.9° (Epoch: 31 May)

Event Time Altitude Azimuth Distance (km) Brightness Sun altitude
Exits shadow 00:56:39 14° 284° (WNW) 1,737 ? -30.0°
Drops below altitude 10° 00:58:26 10° 308° (NW) 2,007 ? -30.1°
Sets 01:01:35 0° 333° (NNW) 2,926 ? -30.1°
